TLPLTFFF

Guest
Details From TLPL - Hewanorra Intl
To TFFF - Le Lamentin
Flight Number -
Tags Generated
Created
Modified
Stats Distance 51 nm / 95 km
Max Altitude 0 ft / 0 m
Waypoints 2
Social Downloads 0
Likes 0
Share VATSIM

Download

Looking for another format? Having issues loading an existing format? Contact us
Advertisement - Login to hide

Notes

Generated

Route

TLPL TFFF

ID Type Via Altitude Latitude Longitude Leg Dist Tot Dist Heading (true) Name
O TLPL APT - 0 ft / 0 m 13.73320˚ -60.96526˚ - 0 nm - -
O TFFF APT - 0 ft / 0 m 14.58843˚ -61.01831˚ 51 nm 51 nm 357° / 357° -

Altitude Profile

Advertisement - Login to hide

TLPL

Details ICAO TLPL (UVF)
Name St. Lucia/Hewanorra Intl
Region Saint Lucia
Timezone America/St_Lucia (UTC-4.0)
Stats Elevation 14 ft / 4 m (AMSL)
Location 13.733194° -60.952599°
Runways 1
Magnetic Variation 15.107° W

METAR

TLPL 251600Z 10018KT 9999 BKN026 30/24 Q1016 NOSIG

Decode

TAF

TAF TLPL 250500Z 2506/2606 10016KT 9999 SCT024 PROB30 TEMPO 2506/2600 SHRA

Decode

Departure Runways

ID Width Length Bearing (true) Bearing (mag) Surface Threshold Offset Overrun Length
10 148 ft / 45 m 8,979 ft / 2,737 m 90.01° 105.12° Asphalt 0 ft / 0 m 200 ft / 61 m
28 148 ft / 45 m 8,979 ft / 2,737 m 270.01° 285.12° Asphalt 459 ft / 140 m 0 ft / 0 m

TFFF

Details ICAO TFFF (FDF)
Name Martinique/Aime Cesaire Intl
Region France (Guadeloupe, Martinique, Saint Barthélemy, Saint Martin)
Timezone America/Martinique (UTC-4.0)
Stats Elevation 16 ft / 5 m (AMSL)
Location 14.591032° -61.003173°
Runways 1
Magnetic Variation 15.072° W

METAR

TFFF 251630Z AUTO 10015KT 9999 FEW029 SCT038 30/22 Q1016 TEMPO 4000 SHRA BKN018TCU

Decode

TAF

TAF TFFF 251000Z 2512/2612 11010KT 9999 SCT026 BKN043 TEMPO 2518/2612 4000 SHRA BKN018TCU PROB30 TEMPO 2609/2612 09015G25KT 1000 TSRA SCT005 BKN015CB

Decode

Destination Runways

ID Width Length Bearing (true) Bearing (mag) Surface Threshold Offset Overrun Length
09 148 ft / 45 m 9,852 ft / 3,003 m 79.93° 95.00° Asphalt 0 ft / 0 m 0 ft / 0 m
27 148 ft / 45 m 9,852 ft / 3,003 m 259.94° 275.01° Asphalt 820 ft / 250 m 948 ft / 289 m

Approach Navaids

Runway Type Ident Frequency Range Bearing (true) Bearing (mag) Slope Elevation
09 Localiser FF 109.90 MHz 18 nm / 33 km 79.90° 94.98° - 16 ft / 5 m (AMSL)
09 Glidescope FF 109.90 MHz 10 nm / 19 km 79.93° 95.00° 3.00° 16 ft / 5 m (AMSL)

Popular Alternatives